JH1LWU-13 Weather Reports


time (UTC)temp
C
wind
direction
speed
KPH
gust
KPH
rain 1hr
cm
rain 24hr
cm
rain mn
cm
humidity
%
barometer
mb
20260504203419 12 201 4.8 6.4 0.00 0.00 0.00 39 1013.0
20260504200418 12 4 0.0 1.6 0.00 0.00 0.00 40 1012.0
20260504193417 12 356 0.0 1.6 0.00 0.00 0.00 41 1010.0
20260504190416 12 124 3.2 9.7 0.00 0.00 0.00 40 1010.0
20260504183415 12 297 0.0 4.8 0.00 0.00 0.00 41 1011.0
20260504180414 12 215 0.0 4.8 0.00 0.00 0.00 40 1009.0
20260504173413 12 253 3.2 8.0 0.00 0.00 0.00 39 1008.0
20260504170412 13 174 4.8 9.7 0.00 0.00 0.00 39 1010.0
20260504160410 13 93 9.7 9.7 0.00 0.00 0.00 38 1007.0
20260504150408 15 141 1.6 4.8 0.00 0.00 0.00 38 1007.0
20260504140406 16 354 3.2 3.2 0.00 0.00 0.00 38 1004.0
20260504130404 17 141 1.6 6.4 0.00 0.00 0.00 37 1003.0
20260504110400 19 224 3.2 6.4 0.00 0.00 0.00 55 999.0
20260504100358 22 231 0.0 0.0 0.00 0.00 0.00 46 998.0
20260504080354 23 72 4.8 6.4 0.00 0.00 0.00 35 993.0
20260504070352 23 267 4.8 8.0 0.00 0.00 0.00 45 993.0
20260504050348 24 339 8.0 11.3 0.00 0.00 0.00 50 991.0
20260504043347 24 73 6.4 8.0 0.00 0.00 0.00 51 991.0
20260504040346 24 94 6.4 9.7 0.00 0.00 0.00 51 991.0
20260504033345 25 257 4.8 11.3 0.00 0.00 0.00 50 994.0
20260504030344 25 345 4.8 11.3 0.00 0.00 0.00 50 992.0
20260504023343 24 62 9.7 12.9 0.00 0.00 0.00 54 991.0
20260504020342 25 165 4.8 8.0 0.00 0.00 0.00 53 993.0
20260504013341 25 96 1.6 3.2 0.00 0.00 0.00 56 993.0
20260504010340 23 82 0.0 3.2 0.00 0.00 0.00 59 993.0
20260504003339 22 333 4.8 4.8 0.00 0.00 0.00 64 993.0
20260504000338 21 170 1.6 8.0 0.00 0.00 0.00 67 994.0
20260503233337 18 342 0.0 4.8 0.00 0.00 0.00 76 994.0
20260503230336 18 222 0.0 4.8 0.00 0.00 0.00 74 995.0
20260503223335 21 38 4.8 8.0 0.00 0.00 0.00 77 993.0
20260503220334 21 128 4.8 8.0 0.00 0.00 0.00 78 994.0
20260503213333 20 24 3.2 9.7 0.00 0.00 0.00 80 994.0
20260503210332 20 224 4.8 11.3 0.00 0.00 0.00 81 991.0